Location: Allison Elementary School
(34.0784°N, 117.7317°W)
Time: 21:10:12
(UTC+00:00)

NOSS 3-1 (A) - Pass Details

Date: 15 November 2019
Orbit: 769 x 1443 km, 63.4° (Epoch: 09 December)

Event Time Altitude Azimuth Distance (km) Brightness Sun altitude
Rises 01:57:45 0° 219° (SW) 3,242 7.1 -14.7°
Reaches altitude 10° 02:00:05 10° 223° (SW) 2,346 6.4 -15.1°
Maximum altitude 02:05:21 62° 303° (WNW) 946 3.6 -16.2°
Drops below altitude 10° 02:11:21 10° 24° (NNE) 2,649 5.4 -17.4°
Enters shadow 02:11:44 - 25° (NNE) 2,799 5.6 -17.5°
